TimeMST,TemperatureF,Dew PointF,Humidity,Sea Level PressureIn,VisibilityMPH,Wind Direction,Wind SpeedMPH,Gust SpeedMPH,PrecipitationIn,Events,Conditions,WindDirDegrees,DateUTC
12:53 AM,42.1,27.0,55,29.63,10.0,WNW,8.1,-,N/A,,Partly Cloudy,300,2013-03-04 07:53:00
2:45 AM,37.4,28.4,70,29.72,10.0,North,16.1,-,N/A,,Overcast,360,2013-03-04 09:45:00
2:53 AM,37.0,28.9,73,29.67,10.0,North,20.7,-,N/A,,Overcast,10,2013-03-04 09:53:00
3:53 AM,30.9,25.0,79,29.70,10.0,North,16.1,-,N/A,,Overcast,360,2013-03-04 10:53:00
4:53 AM,28.9,24.1,82,29.73,10.0,North,15.0,-,N/A,,Overcast,360,2013-03-04 11:53:00
5:53 AM,28.0,21.9,78,29.78,10.0,North,12.7,-,N/A,,Mostly Cloudy,350,2013-03-04 12:53:00
6:53 AM,28.0,21.9,78,29.82,10.0,North,9.2,-,N/A,,Overcast,350,2013-03-04 13:53:00
7:53 AM,30.9,19.9,64,29.85,10.0,North,11.5,-,N/A,,Overcast,10,2013-03-04 14:53:00
8:53 AM,30.9,19.0,61,29.87,10.0,North,12.7,-,N/A,,Overcast,10,2013-03-04 15:53:00
9:53 AM,33.1,17.1,52,29.86,10.0,North,15.0,-,N/A,,Overcast,360,2013-03-04 16:53:00
10:53 AM,33.1,16.0,50,29.86,10.0,North,19.6,-,N/A,,Overcast,360,2013-03-04 17:53:00
11:53 AM,30.0,25.0,82,29.92,7.0,North,20.7,-,0.00,Snow,Light Snow,360,2013-03-04 18:53:00
12:25 PM,30.2,24.8,80,29.86,2.5,North,17.3,-,0.00,Snow,Light Snow,350,2013-03-04 19:25:00
12:33 PM,30.2,24.8,80,29.85,6.0,North,20.7,25.3,0.00,Snow,Light Snow,350,2013-03-04 19:33:00
12:53 PM,30.0,24.1,79,29.91,9.0,NNW,17.3,23.0,0.00,,Overcast,340,2013-03-04 19:53:00
1:01 PM,28.4,24.8,86,29.87,1.8,NNW,17.3,-,0.00,Snow,Light Snow,330,2013-03-04 20:01:00
1:08 PM,28.4,24.8,86,29.86,1.0,NNW,17.3,-,0.00,Snow,Light Snow,340,2013-03-04 20:08:00
1:11 PM,28.4,24.8,86,29.86,0.8,NNW,19.6,-,0.00,Snow,Light Snow,330,2013-03-04 20:11:00
1:22 PM,28.4,26.6,93,29.86,0.8,NNW,17.3,-,0.00,Snow,Light Snow,340,2013-03-04 20:22:00
1:29 PM,28.4,26.6,93,29.88,1.0,NNW,15.0,24.2,0.00,Snow,Light Snow,330,2013-03-04 20:29:00
1:41 PM,28.4,26.6,93,29.92,1.2,NW,12.7,-,0.00,Snow,Light Snow,320,2013-03-04 20:41:00
1:51 PM,28.4,26.6,93,29.90,2.0,NNW,15.0,-,0.00,Snow,Light Snow,330,2013-03-04 20:51:00
1:53 PM,28.9,27.0,92,29.96,2.5,NNW,13.8,-,0.00,Snow,Light Snow,330,2013-03-04 20:53:00
2:00 PM,28.4,26.6,93,29.93,2.5,NNW,12.7,-,0.00,Snow,Light Snow,330,2013-03-04 21:00:00
2:03 PM,30.2,26.6,86,29.93,1.8,NW,13.8,-,0.00,Snow,Light Snow,320,2013-03-04 21:03:00
2:14 PM,30.2,24.8,80,29.93,2.5,NNW,23.0,33.4,0.00,Snow,Light Snow,330,2013-03-04 21:14:00
2:30 PM,28.4,19.4,69,29.95,6.0,NNW,24.2,-,0.00,Snow,Light Snow,330,2013-03-04 21:30:00
2:42 PM,30.2,17.6,60,29.95,10.0,NNW,21.9,33.4,0.00,,Overcast,340,2013-03-04 21:42:00
2:53 PM,30.0,17.1,59,30.00,10.0,NNW,26.5,35.7,0.00,,Overcast,330,2013-03-04 21:53:00
3:53 PM,30.9,15.1,52,30.06,10.0,NNW,19.6,26.5,N/A,,Mostly Cloudy,340,2013-03-04 22:53:00
4:53 PM,32.0,14.0,48,30.09,10.0,North,18.4,26.5,N/A,,Clear,350,2013-03-04 23:53:00
5:53 PM,27.0,12.9,56,30.14,10.0,North,11.5,-,N/A,,Clear,350,2013-03-05 00:53:00
6:53 PM,26.1,12.0,55,30.20,10.0,North,21.9,-,N/A,,Clear,350,2013-03-05 01:53:00
7:53 PM,24.1,10.0,55,30.25,10.0,NNW,25.3,38.0,N/A,,Clear,340,2013-03-05 02:53:00
8:53 PM,21.0,10.0,63,30.27,10.0,NNW,15.0,-,N/A,,Clear,340,2013-03-05 03:53:00
9:53 PM,19.9,9.0,62,30.29,10.0,NNW,18.4,-,N/A,,Clear,330,2013-03-05 04:53:00
10:53 PM,19.9,9.0,62,30.30,10.0,NNW,20.7,-,N/A,,Clear,330,2013-03-05 05:53:00